Location: *
(8.5667°N, 81.2333°E)
Time: 20:40:25
(UTC+00:00)

Daily predictions for brighter satellites

Satellite Brightness Start Highest point End
(mag) Time Altitude Azimuth Time Altitude Azimuth Time Altitude Azimuth
Meteor 2-16 Rocket 4.5 12:55:21 10° N 13:01:29 75° E 13:07:36 10° S
OAO 2 Rocket 3.4 12:57:23 10° NW 13:02:37 85° NE 13:07:43 10° SE
Cosmos 1939 Rocket 3.7 13:03:16 10° SE 13:06:45 30° ENE 13:10:12 10° NNE
Ariane H10-3 2.8 13:04:31 10° W 13:10:48 79° S 13:15:26 10° E
Meteor 1-24 Rocket 3.6 13:06:38 10° N 13:11:52 65° E 13:17:08 10° SSE
Cosmos 614 Rocket 4.4 13:07:49 10° S 13:12:42 42° ESE 13:17:35 10° NNE
NOAA 11 4.3 13:09:31 10° SSE 13:14:49 56° ENE 13:20:07 10° N
Cosmos 1953 2.4 13:11:07 10° S 13:14:57 52° E 13:18:48 10° NNE
Cosmos 2315 Rocket 4.2 13:08:46 10° S 13:15:03 80° W 13:21:23 10° N
Cosmos 1470 3.9 13:12:06 10° SSW 13:15:49 48° W 13:19:33 10° N
OE (NEXTSAT) 4.4 13:13:20 10° SW 13:16:49 83° NW 13:20:18 10° NE
Milstar 3 Cent rocket 3.7 13:12:43 10° WNW 13:19:43 80° SSW 13:35:07 10° ESE
Atlas Centaur 2 4.5 13:15:59 10° W 13:20:41 19° SW 13:24:48 10° S
Cosmos 1726 2.4 13:19:52 10° SSE 13:23:25 43° E 13:26:58 10° NNE
STARLINK-1116 4.3 13:20:22 10° NNW 13:24:09 35° NE 13:27:07 15° ESE
Centaur AC-125 3.6 13:22:24 10° SSW 13:24:10 14° SSE 13:25:06 12° SE
ARIANE 5 R/B 3.0 13:23:17 10° SW 13:24:54 19° S 13:26:13 13° SE
Cosmos 1626 Rocket 4.0 13:23:00 10° NNE 13:26:58 36° E 13:30:55 10° SSE
Aureole 3 3.4 13:25:46 10° S 13:29:19 79° W 13:33:48 10° N
Cosmos 407 Rocket 3.5 13:27:52 10° S 13:32:58 57° ESE 13:38:01 10° NNE
STARLINK-1094 3.9 13:30:07 10° NNW 13:34:06 47° NE 13:36:42 20° ESE
deb Ariane 3.3 13:27:05 10° W 13:35:36 74° S 13:37:34 23° E
Okean-O 4.2 13:31:40 10° S 13:35:47 38° W 13:39:53 10° NNW
Cosmos 1602 Rocket 4.0 13:34:23 10° NNE 13:38:26 37° E 13:42:27 10° SSE
STARLINK-1117 3.7 13:35:02 10° NNW 13:39:04 55° NE 13:41:29 22° SE
Cosmos 1709 Rocket 3.9 13:33:01 10° N 13:39:05 73° E 13:45:10 10° S
CZ-2D R/B 3.3 13:38:52 10° S 13:42:41 79° W 13:46:29 10° NNW
STARLINK-1078 3.6 13:39:57 10° NNW 13:44:01 65° NE 13:46:16 25° SE
ATLAS 5 CENTAUR R/B 3.3 13:41:23 10° SW 13:44:58 31° WNW 13:48:33 10° N
Meteor 1-16 Rocket 4.0 13:41:20 10° S 13:46:38 84° E 13:52:00 10° N
Cosmos 2228 3.0 13:42:56 10° S 13:47:04 53° E 13:51:14 10° NNE
STARLINK-1108 3.5 13:44:54 10° NNW 13:49:01 76° NE 13:51:04 29° SE
ASTRO E2 2.8 13:49:03 10° SW 13:52:57 54° SSE 13:53:54 42° E
STARLINK-1071 3.5 13:49:50 10° NW 13:53:58 88° ENE 13:55:50 32° SE
Cosmos 1954 Rocket 4.3 13:52:03 10° S 13:57:00 41° ESE 14:01:55 10° NNE
Cosmos 1606 Rocket 3.4 13:52:45 10° S 13:57:07 84° E 14:01:32 10° N
Spelda 30 4.2 13:54:00 10° WSW 13:58:06 22° S 13:58:43 20° S
STARLINK-1110 3.6 13:54:49 10° NW 13:58:56 79° WSW 14:00:38 34° SSE
Cosmos 1023 Rocket 4.3 13:53:54 10° S 13:59:08 82° ESE 14:04:19 10° NNE
CZ-3B Rocket 1.8 13:56:35 10° W 14:00:10 63° NNW 14:02:01 30° ENE
ATLAS 5 CENTAUR R/B 3.2 13:57:46 10° WNW 14:01:31 33° N 14:08:57 16° ENE
Cosmos 1302 Rocket 4.4 13:57:44 10° NNW 14:02:57 64° WSW 14:08:10 10° S
Cosmos 2297 4.4 13:57:58 10° NNW 14:03:31 55° WSW 14:09:06 10° S
STARLINK-1124 3.8 13:59:47 10° NW 14:03:53 68° WSW 14:05:23 37° SSE
ATLAS 2AS CENTAUR RB 3.4 13:18:51 10° W 14:05:11 73° N 14:08:25 32° ENE
STARLINK-1122 4.1 14:04:48 10° NW 14:08:51 58° SW 14:10:11 37° S
STARLINK-1126 4.3 14:09:51 10° NW 14:13:50 49° SW 14:14:59 37° S
H-2A R/B 2.3 14:14:00 48° ENE 14:14:00 48° ENE 14:18:53 10° N
GOES 2 Rocket 3.1 14:11:01 10° NW 14:15:04 55° NNE 14:15:04 55° NNE
CZ-2C R/B 3.8 14:16:57 34° NE 14:16:57 34° NE 14:20:09 10° N
Meteor 1-21 Rocket 4.0 14:11:01 10° N 14:16:32 74° E 14:19:10 32° SSE
Cosmos 1943 Rocket 2.1 14:11:58 10° N 14:17:30 64° ENE 14:18:22 56° ESE
deb Ariane 4.1 14:17:40 10° WSW 14:19:34 39° SW 14:19:34 39° SW
Cosmos 2369 Rocket 2.5 14:20:51 10° N 14:25:24 48° NE 14:25:24 48° NE
GPS 2-12 Rocket1 3.6 14:22:28 10° WSW 14:26:15 48° SSW 14:26:15 48° SSW
ARIANE 5 R/B 4.3 14:28:19 10° SSW 14:29:05 15° SSW 14:29:05 15° SSW
ARIANE 5 R/B 3.5 14:25:06 10° W 14:31:39 66° SSW 14:31:39 66° SSW
IRS-1A Rocket 4.1 14:33:41 77° SE 14:34:05 85° E 14:39:48 10° NNW
Cosmos 292 Rocket 3.9 14:29:38 10° NNW 14:33:56 69° NW 14:33:56 69° NW
MOS 1 Rocket 4.4 14:30:20 10° NNE 14:33:43 40° NNE 14:33:43 40° NNE
Ariane Rocket 3.0 14:36:06 79° W 14:36:06 79° W 14:41:07 10° NNW
ARGOS 4.1 14:54:21 41° NNW 14:54:21 41° NNW 14:57:45 10° NNW
Cosmos 2184 Rocket 4.2 14:50:49 10° NNW 14:56:55 64° W 14:57:09 63° WSW
ATLAS 3B CENTAUR R/B 4.1 15:00:05 10° W 15:02:36 17° WSW 15:02:36 17° WSW
CZ-2C R/B 4.4 15:02:22 10° N 15:04:31 23° NNW 15:04:31 23° NNW
Lacrosse 5 4.2 22:02:02 17° ESE 22:02:02 17° ESE 22:05:13 10° ENE
Ariane H10+ 3.8 22:17:53 52° SSW 22:19:52 59° SSE 22:45:59 10° E
CZ-2C R/B 4.1 22:18:31 10° NNE 22:20:20 24° NNE 22:20:20 24° NNE
SL-16 R/B 3.8 22:19:13 10° N 22:24:12 32° ENE 22:29:11 10° SE
Meteor 1-23 Rocket 4.4 22:28:17 68° ESE 22:28:38 70° E 22:34:17 10° NNE
Yuri Rocket 4.1 22:38:31 38° ESE 22:38:31 38° ESE 22:41:17 10° ESE
Cosmos 2263 Rocket 3.4 22:41:36 29° NNW 22:41:36 29° NNW 22:44:33 10° N
Cosmos 1092 Rocket 3.9 22:42:21 67° W 22:42:35 67° W 22:48:52 10° N
PSLV R/B 4.4 22:43:27 45° N 22:43:35 45° N 22:46:23 10° ENE
Cosmos 1484 Rocket 4.1 22:46:58 10° NNE 22:50:24 36° E 22:52:32 19° SSE
Cosmos 2026 Rocket 3.8 22:49:35 20° S 22:54:00 78° W 23:00:05 10° N
Cosmos 494 Rocket 4.0 22:50:31 10° N 22:55:46 79° ENE 23:01:00 10° SSE
CZ-4B R/B 3.7 22:52:51 10° NNE 22:57:15 56° E 23:01:40 10° S
GPS 2-04 Rocket1 2.8 22:59:17 61° SE 22:59:17 61° SE 23:02:28 10° SE
Cosmos 1437 Rocket 2.7 23:03:10 70° WNW 23:03:10 70° WNW 23:07:05 10° N
Cosmos 1428 Rocket 4.3 22:57:54 10° S 23:03:58 70° W 23:10:03 10° N
GPS 2-12 Rocket1 3.2 23:05:03 43° NW 23:06:13 61° NNE 23:10:35 10° E
Cosmos 1689 Rocket 2.3 23:06:27 10° SSE 23:09:26 67° ENE 23:12:24 10° N
STARLINK-52 3.8 23:08:22 30° N 23:09:34 49° NE 23:12:40 10° SE
IUS-17 SRM-1 4.1 23:11:04 25° NW 23:13:00 57° NE 23:25:03 10° ESE
Cosmos 2151 Rocket 3.8 23:10:32 10° NNW 23:14:43 45° W 23:18:56 10° SSW
Cosmos 1269 Rocket 4.0 23:10:37 10° N 23:15:55 85° ENE 23:21:13 10° SSE
Gblst 52 Del rocket 4.1 23:17:35 15° NW 23:22:13 59° SW 23:27:36 10° SSE
SWIFT 4.5 23:24:35 10° NW 23:27:39 19° N 23:30:41 10° NE
Ariane H10+ 2.7 23:27:59 19° S 23:28:00 19° S 23:29:59 10° ESE
Cosmos 1655 Rocket 4.1 23:23:00 10° S 23:29:24 85° E 23:35:46 10° N
Cosmos 1844 4.2 23:26:30 10° S 23:31:59 62° ESE 23:37:27 10° NNE
Cosmos 2056 Rocket 4.2 23:27:41 10° S 23:33:00 58° ESE 23:38:14 10° NNE
Lacrosse 4 Rocket 1.6 23:30:36 10° SSW 23:34:47 74° ESE 23:39:05 10° NNE
ARIANE 44L R/B 4.3 23:31:37 15° SW 23:34:54 21° SSW 23:37:22 10° SE
ARIANE 5 DEB (SYLDA) 4.0 23:33:00 19° SW 23:35:00 26° SSW 23:37:35 10° SE
Meteor 1-31 Rocket 3.9 23:33:01 10° NNW 23:36:10 24° WNW 23:36:59 22° W
ALOS 2.4 23:38:42 10° N 23:43:13 52° WNW 23:47:44 10° SSW
METEOR-M 4.1 23:38:06 10° N 23:43:22 62° WNW 23:48:38 10° SSW
Lacrosse 5 2.6 23:41:19 16° WSW 23:44:38 34° WNW 23:49:12 10° N
Cosmos 1975 Rocket 3.7 23:41:49 10° SSW 23:45:42 32° W 23:49:35 10° NNW
Meteor PRIRODA 4.3 23:43:34 10° NNW 23:46:53 33° WNW 23:50:15 10° SW
PSLV R/B 3.8 23:44:11 10° N 23:48:07 59° WNW 23:51:59 10° SSW
Okean 2 4.2 23:44:55 10° SW 23:48:30 28° W 23:52:04 10° NNW
Palapa B4 Rocket 4.3 23:42:45 15° W 23:48:43 49° NNW 23:53:24 10° ENE
STARLINK-1129 3.8 23:46:53 10° SSW 23:50:59 74° SE 23:55:06 10° NE
H-2A R/B 3.5 23:48:12 10° NNW 23:51:13 22° WNW 23:54:13 10° SW
Cosmos 1553 Rocket 4.3 23:45:57 10° N 23:52:18 76° E 23:58:42 10° S
Ariane H10-3 3.8 23:51:34 11° WSW 23:54:02 22° S 23:55:58 10° SE
FENGYUN 3A 4.0 23:49:08 10° N 23:54:10 43° WNW 23:59:13 10° SSW
